When you browse on this site, cookies collect data to enhance your experience and personalize the content and advertising you see.
Visit our Privacy Policy to learn more. By continuing to use the site, you agree to this use of cookies and data.
  • In Romania
  • List of Countries
  • For 7 days
  • Water Temperature
  • Weather Map
  • Weather Widgets
  • user-avatar
    Login

    Hourly Weather Darwin

    Today, 15 September, Sunday

    Time Temperature Precipitation Wind Pressure Humidity
    00:00 +21°C° 0 mm 2 mps 761 mmHg 72%
    01:00 +20°C° 0 mm 2 mps 761 mmHg 76%
    02:00 +20°C° 0 mm 2 mps 761 mmHg 80%
    03:00 +20°C° 0 mm 2 mps 761 mmHg 83%
    04:00 +20°C° 0 mm 2 mps 761 mmHg 86%
    05:00 +19°C° 0 mm 2 mps 761 mmHg 90%
    06:00 +19°C° 0 mm 3 mps 762 mmHg 93%
    07:00 +22°C° 0 mm 3 mps 762 mmHg 75%
    08:00 +26°C° 0 mm 4 mps 762 mmHg 57%
    09:00 +30°C° 0 mm 5 mps 762 mmHg 33%
    10:00 +32°C° 0 mm 6 mps 761 mmHg 29%
    11:00 +33°C° 0 mm 6 mps 761 mmHg 26%
    12:00 +35°C° 0 mm 6 mps 760 mmHg 22%
    13:00 +35°C° 0 mm 6 mps 760 mmHg 24%
    14:00 +36°C° 0 mm 7 mps 759 mmHg 25%
    15:00 +37°C° 0 mm 5 mps 759 mmHg 23%
    16:00 +34°C° 0 mm 6 mps 759 mmHg 31%
    17:00 +32°C° 0 mm 6 mps 759 mmHg 38%
    18:00 +29°C° 0 mm 6 mps 759 mmHg 46%
    19:00 +27°C° 0 mm 6 mps 759 mmHg 55%
    20:00 +26°C° 0 mm 5 mps 760 mmHg 64%
    21:00 +23°C° 0 mm 4 mps 760 mmHg 74%
    22:00 +22°C° 0 mm 4 mps 760 mmHg 77%
    23:00 +22°C° 0 mm 3 mps 760 mmHg 80%

    Tomorrow, 16 September, Monday

    Time Temperature Precipitation Wind Pressure Humidity
    00:00 +21°C° 0 mm 2 mps 760 mmHg 83%
    01:00 +21°C° 0 mm 2 mps 760 mmHg 84%
    02:00 +21°C° 0 mm 3 mps 760 mmHg 86%
    03:00 +21°C° 0 mm 3 mps 760 mmHg 87%
    04:00 +20°C° 0 mm 3 mps 760 mmHg 89%
    05:00 +20°C° 0 mm 3 mps 761 mmHg 91%
    06:00 +20°C° 0 mm 2 mps 761 mmHg 92%
    07:00 +22°C° 0 mm 3 mps 761 mmHg 76%
    08:00 +26°C° 0 mm 3 mps 762 mmHg 59%
    09:00 +29°C° 0 mm 4 mps 762 mmHg 43%
    10:00 +33°C° 0 mm 4 mps 761 mmHg 33%
    11:00 +35°C° 0 mm 4 mps 761 mmHg 24%
    12:00 +37°C° 0 mm 4 mps 760 mmHg 14%
    13:00 +37°C° 0 mm 5 mps 760 mmHg 14%
    14:00 +39°C° 0 mm 5 mps 759 mmHg 14%
    15:00 +39°C° 0 mm 5 mps 758 mmHg 15%
    16:00 +35°C° 0 mm 5 mps 758 mmHg 23%
    17:00 +32°C° 0 mm 5 mps 758 mmHg 31%
    18:00 +28°C° 0 mm 5 mps 758 mmHg 39%
    19:00 +26°C° 0 mm 4 mps 759 mmHg 49%
    20:00 +24°C° 0 mm 3 mps 759 mmHg 58%
    21:00 +21°C° 0 mm 2 mps 760 mmHg 68%
    22:00 +21°C° 0 mm 2 mps 760 mmHg 72%
    23:00 +21°C° 0 mm 3 mps 760 mmHg 77%

    Day after tomorrow, 17 September, Tuesday

    Time Temperature Precipitation Wind Pressure Humidity
    00:00 +22°C° 0 mm 3 mps 760 mmHg 82%
    01:00 +21°C° 0.1 mm 3 mps 760 mmHg 82%
    02:00 +21°C° 0.1 mm 3 mps 760 mmHg 83%
    03:00 +21°C° 0.1 mm 3 mps 760 mmHg 84%
    04:00 +21°C° 0 mm 2 mps 760 mmHg 87%
    05:00 +21°C° 0 mm 2 mps 760 mmHg 90%
    06:00 +20°C° 0 mm 2 mps 761 mmHg 94%
    07:00 +24°C° 0 mm 2 mps 761 mmHg 78%
    08:00 +27°C° 0 mm 2 mps 762 mmHg 62%
    09:00 +30°C° 0 mm 3 mps 762 mmHg 46%
    10:00 +33°C° 0 mm 3 mps 761 mmHg 37%
    11:00 +36°C° 0 mm 4 mps 761 mmHg 28%
    12:00 +38°C° 0 mm 4 mps 760 mmHg 20%
    13:00 +38°C° 0 mm 4 mps 760 mmHg 20%
    14:00 +39°C° 0 mm 5 mps 759 mmHg 21%
    15:00 +39°C° 0 mm 5 mps 759 mmHg 22%
    16:00 +35°C° 0 mm 5 mps 759 mmHg 28%
    17:00 +33°C° 0 mm 5 mps 759 mmHg 34%
    18:00 +30°C° 0 mm 4 mps 759 mmHg 40%
    19:00 +28°C° 0 mm 4 mps 760 mmHg 53%
    20:00 +26°C° 0 mm 4 mps 760 mmHg 66%
    21:00 +24°C° 0 mm 3 mps 761 mmHg 79%
    22:00 +24°C° 0 mm 3 mps 761 mmHg 82%
    23:00 +23°C° 0 mm 2 mps 761 mmHg 85%

    18 September, Wednesday

    Time Temperature Precipitation Wind Pressure Humidity
    00:00 +23°C° 0 mm 1 mps 761 mmHg 87%
    01:00 +23°C° 0 mm 2 mps 761 mmHg 89%
    02:00 +21°C° 0 mm 2 mps 761 mmHg 91%
    03:00 +21°C° 0 mm 2 mps 761 mmHg 93%
    04:00 +21°C° 0 mm 2 mps 761 mmHg 93%
    05:00 +21°C° 0 mm 2 mps 761 mmHg 93%
    06:00 +22°C° 0 mm 1 mps 762 mmHg 93%
    07:00 +25°C° 0 mm 2 mps 762 mmHg 76%
    08:00 +28°C° 0 mm 2 mps 762 mmHg 60%
    09:00 +31°C° 0 mm 3 mps 762 mmHg 43%
    10:00 +34°C° 0 mm 3 mps 761 mmHg 35%
    11:00 +37°C° 0 mm 3 mps 761 mmHg 26%
    12:00 +40°C° 0 mm 4 mps 760 mmHg 18%
    13:00 +40°C° 0 mm 4 mps 759 mmHg 18%
    14:00 +40°C° 0 mm 4 mps 759 mmHg 19%
    15:00 +40°C° 0 mm 4 mps 758 mmHg 19%
    16:00 +36°C° 0 mm 4 mps 758 mmHg 26%
    17:00 +34°C° 0 mm 4 mps 758 mmHg 33%
    18:00 +30°C° 0 mm 3 mps 758 mmHg 40%
    19:00 +28°C° 0 mm 3 mps 759 mmHg 51%
    20:00 +26°C° 0 mm 3 mps 760 mmHg 63%
    21:00 +24°C° 0 mm 3 mps 761 mmHg 74%
    22:00 +24°C° 0 mm 3 mps 761 mmHg 78%
    23:00 +23°C° 0 mm 2 mps 761 mmHg 82%

    19 September, Thursday

    Time Temperature Precipitation Wind Pressure Humidity
    00:00 +23°C° 0 mm 1 mps 761 mmHg 85%
    01:00 +21°C° 0 mm 2 mps 761 mmHg 86%
    02:00 +21°C° 0 mm 2 mps 761 mmHg 86%
    03:00 +21°C° 0 mm 2 mps 760 mmHg 87%
    04:00 +21°C° 0 mm 2 mps 760 mmHg 88%
    05:00 +20°C° 0 mm 2 mps 760 mmHg 90%
    06:00 +21°C° 0 mm 1 mps 761 mmHg 91%
    07:00 +25°C° 0 mm 1 mps 761 mmHg 75%
    08:00 +28°C° 0 mm 1 mps 761 mmHg 58%
    09:00 +32°C° 0 mm 1 mps 761 mmHg 42%
    10:00 +35°C° 0 mm 2 mps 761 mmHg 33%
    11:00 +37°C° 0 mm 3 mps 760 mmHg 25%
    12:00 +39°C° 0 mm 3 mps 759 mmHg 16%
    13:00 +38°C° 0 mm 4 mps 758 mmHg 21%
    14:00 +37°C° 0 mm 4 mps 758 mmHg 26%
    15:00 +36°C° 0 mm 4 mps 757 mmHg 31%
    16:00 +34°C° 0 mm 4 mps 757 mmHg 34%
    17:00 +31°C° 0 mm 3 mps 757 mmHg 37%
    18:00 +29°C° 0 mm 3 mps 758 mmHg 40%
    19:00 +27°C° 0 mm 3 mps 758 mmHg 55%
    20:00 +26°C° 0 mm 3 mps 759 mmHg 70%
    21:00 +24°C° 0 mm 3 mps 760 mmHg 84%
    22:00 +24°C° 0 mm 3 mps 760 mmHg 85%
    23:00 +24°C° 0 mm 3 mps 760 mmHg 86%

    20 September, Friday

    Time Temperature Precipitation Wind Pressure Humidity
    00:00 +24°C° 0 mm 2 mps 760 mmHg 87%
    01:00 +24°C° 0 mm 2 mps 760 mmHg 88%
    02:00 +23°C° 0 mm 1 mps 759 mmHg 89%
    03:00 +21°C° 0 mm 0 mps 759 mmHg 91%
    04:00 +22°C° 0 mm 1 mps 759 mmHg 92%
    05:00 +22°C° 0 mm 1 mps 760 mmHg 92%
    06:00 +22°C° 0 mm 1 mps 760 mmHg 93%
    07:00 +25°C° 0 mm 1 mps 760 mmHg 78%
    08:00 +29°C° 0 mm 1 mps 760 mmHg 63%
    09:00 +32°C° 0 mm 1 mps 761 mmHg 48%
    10:00 +35°C° 0 mm 2 mps 760 mmHg 42%
    11:00 +36°C° 0 mm 2 mps 759 mmHg 37%
    12:00 +38°C° 0 mm 3 mps 759 mmHg 31%
    13:00 +37°C° 0 mm 3 mps 758 mmHg 33%
    14:00 +37°C° 0 mm 4 mps 757 mmHg 34%
    15:00 +36°C° 0 mm 4 mps 757 mmHg 35%
    16:00 +34°C° 0 mm 4 mps 757 mmHg 44%
    17:00 +32°C° 0 mm 4 mps 757 mmHg 52%
    18:00 +29°C° 0 mm 5 mps 757 mmHg 61%
    19:00 +27°C° 0 mm 4 mps 758 mmHg 68%
    20:00 +26°C° 0 mm 4 mps 758 mmHg 75%
    21:00 +25°C° 0 mm 4 mps 759 mmHg 83%
    22:00 +25°C° 0 mm 4 mps 759 mmHg 84%
    23:00 +24°C° 0 mm 3 mps 759 mmHg 85%
    Show more